Regional Weather Roundup
Issued by NWS Charleston, SC

Current Version | Previous Version | Graphics & Text | Print | Product List | Glossary On
Versions: 1 2 3 4 5 6 7 8 9 10 11 12 13 14 15 16 17 18 19 20 21 22 23 24 25 26 27 28 29 30 31 32 33 34 35 36 37 38 39 40 41 42 43 44 45 46 47 48 49 50
000
ASUS42 KCHS 271813
RWRCHS

REGIONAL WEATHER ROUNDUP
NATIONAL WEATHER SERVICE CHARLESTON SC
200 PM EDT SAT AUG 27 2016

NOTE: "FAIR" INDICATES FEW OR NO CLOUDS BELOW 12,000 FEET WITH NO
SIGNIFICANT WEATHER AND/OR OBSTRUCTIONS TO VISIBILITY.

NOT ALL STATIONS ARE QUALITY CONTROLLED. USE DATA WITH CAUTION...
ESPECIALLY DEWPOINT OBSERVATIONS.

SCZ027-030-031-034>040-042>050-271900-
...SOUTHEAST SOUTH CAROLINA...

CITY           SKY/WX    TMP DP  RH WIND       PRES   REMARKS
N CHARLESTON   MOSUNNY   91  69  48 E8        30.08S HX  96
6HR MIN TEMP:  77; 6HR MAX TEMP:  92;

WATERFRONT PRK   N/A     86  75  69 E13       30.07S HX  95
MOUNT PLEASANT FAIR      88  73  62 CALM      30.08S HX  96
JOHNS ISLAND   MOCLDY    88  75  66 E12       30.08S HX  97
PINOPOLIS        N/A     88  72  58 E5        30.01F HX  94
MONCKS CORNER  FAIR      91  68  46 E9        30.08S HX  95
SUMMERVILLE    FAIR      91  68  46 E6G16     30.08S HX  95
BEAUFORT MCAS  MOSUNNY   90  72  55 E14       30.08S HX  97
6HR MIN TEMP:  76; 6HR MAX TEMP:  91;

BEAUFORT ARPT  FAIR      88  72  58 E9        30.08S HX  94
HILTON HEAD IS MOSUNNY   90  73  58 NE9G18    30.09S HX  98
WALTERBORO     PTCLDY    95  66  38 E7G16     30.08S HX  98
ALLENDALE      FAIR      91  66  43 SE9G16    30.07S HX  94

...SOUTHERN MIDLANDS AND PEE DEE...

CITY           SKY/WX    TMP DP  RH WIND       PRES   REMARKS
GEORGETOWN     FAIR      88  70  55 E9        30.10S HX  92
KINGSTREE      MOCLDY    91  68  46 E8G17     30.08F HX  95
ORANGEBURG     SUNNY     92  70  48 E10G18    30.09S HX  97
6HR MIN TEMP:  75; 6HR MAX TEMP:  92;

BARNWELL       NOT AVBL
AIKEN          FAIR      93  68  43 E13G20    30.13S HX  97
MANNING        FAIR      91  70  49 E7        30.08F HX  97
COLUMBIA       PTSUNNY   95  70  44 SE13      30.08F HX 101
6HR MIN TEMP:  77; 6HR MAX TEMP:  95;

SUMTER         MOSUNNY   93  71  47 SE10      30.07F HX 100
6HR MIN TEMP:  75; 6HR MAX TEMP:  93;

FLORENCE       MOSUNNY   96  71  44 SE12      30.09F HX 103
6HR MIN TEMP:  76; 6HR MAX TEMP:  96;

MYRTLE BEACH   MOSUNNY   90  70  51 E15       30.12S HX  95
N MYRTLE BEACH SUNNY     88  74  63 SE12      30.09F HX  96
6HR MIN TEMP:  76; 6HR MAX TEMP:  88;


$$

GAZ063-065-086>088-099>101-113>116-118-119-134>141-150-271900-
...SOUTHEAST GEORGIA...

CITY           SKY/WX    TMP DP  RH WIND       PRES   REMARKS
SAVANNAH ARPT  MOSUNNY   92  69  47 E15       30.06F HX  97
6HR MIN TEMP:  73; 6HR MAX TEMP:  93;

HUNTER AAF     MOSUNNY   89  78  69 E13       30.05S HX 102
6HR MIN TEMP:  76; 6HR MAX TEMP:  89;

FORT STEWART   MOSUNNY   89  70  53 E12       30.03F HX  94
6HR MIN TEMP:  73; 6HR MAX TEMP:  91;

STATESBORO     SUNNY     93  67  42 SE9       30.07S HX  96
SYLVANIA       NOT AVBL
CLAXTON        FAIR      92  69  47 NE13G21   30.06S HX  96

...CSRA...CENTRAL AND FAR SOUTHEAST GEORGIA...

CITY           SKY/WX    TMP DP  RH WIND       PRES   REMARKS
THOMSON        SUNNY     95  73  48 MISG      30.13F HX 104
AUGUSTA-BUSH   MOSUNNY   95  68  41 E10G22    30.07F HX  99
6HR MIN TEMP:  74; 6HR MAX TEMP:  96;

AUGUSTA-DANIEL PTSUNNY   94  70  45 E12G18    30.09F HX 100
SWAINSBORO     FAIR      93  55  27 SE14G20   30.07S HX  91
VIDALIA        SUNNY     91  70  49 E7G20     30.06F HX  97
EASTMAN        FAIR      95  31  10 SE9       30.07F
HAZLEHURST     FAIR      93  68  43 E8        30.05S HX  97
ALMA           MOSUNNY   91  68  46 E10       30.04F HX  95
6HR MIN TEMP:  68; 6HR MAX TEMP:  91;

WAYCROSS         N/A     92  77  60 SE10G17   30.04S HX 105
JESUP          FAIR      91  72  52 E13G20    30.05S HX  98
BAXLEY         FAIR      91  73  55 E8        30.04S HX 100
BRUNSWICK      CLOUDY    88  77  70 E16       30.05S HX 100
SAINT SIMONS   PTSUNNY   87  75  67 E17G26    30.03  HX  96
6HR MIN TEMP:  75; 6HR MAX TEMP:  88;


$$

SCZ027-028-034-036>038-045-046-048>050-GAZ119-141-271900-
...LAKE AND SUPPLEMENTAL COASTAL OBSERVATIONS...

STATION/POSITION TIME  TEMP    WIND        PRES    WAVE   SWELL
                       AIR SEA DIR/SP/G            HT/PER HT/PER/DIR
                 (UTC) (F)     (DEG/KT/KT) (MB)    (FT/S) (FT/S/D)
WINYAH BAY       NOT AVBL
LAKE MURRAY      1700   88     100/ 13/ 16 1018.6F
ACE BASIN NERRS  NOT AVBL
FORT PULASKI     1700   83 86   70/ 17/ 19 1018.8S
SAPELO ISLAND    1700   88      60/ 14     1018.0S

$$

ANZ835-935-AMZ111-154-330-350-352-354-370-450-454-472-271900-
...C-MAN AND BUOY OBSERVATIONS...

STATION/POSITION TIME  TEMP    WIND        PRES    WAVE   SWELL
                       AIR SEA DIR/SP/G            HT/PER HT/PER/DIR
                 (UTC) (F)     (DEG/KT/KT) (MB)    (FT/S) (FT/S/D)
BUOY 41004       1750   83 84   70/ 14/ 17 1017.5F   5/10   3/130/10
BUOY 41008       1750   83 85   70/ 17/ 19 1017.1F   5/10   2/120/10
FOLLY BEACH CMAN 1700   83      80/ 13/ 14 1018.9F
CAPERS NEARSHORE 1708   83 84   80/ 14/ 17 1018.4F
FRIPP NEARSHORE  1708   83 86   80/ 16/ 21 1017.7F


STATION/POSITION TIME  TEMP    WIND        PRES    WAVE   SWELL
                       AIR SEA DIR/SP/G            HT/PER HT/PER/DIR
                 (UTC) (F)     (DEG/KT/KT) (MB)    (FT/S) (FT/S/D)
5E ST. MARYS GA  1701      85                N/A     6/10   2/120/11
FRYING PAN BUOY  1700   83 85   50/ 10/ 14 1018.9F
BUOY 41025       1750   82 85   20/  6/  8 1019.2F   3/10   3/130/10
CAPE LOOKOUT NC  1800   83      90/  9/ 10 1018.9F
BUOY 41002       1750   82 84   50/ 14/ 16 1017.1F   5/ 8   3/100/ 8
BUOY 41010       NOT AVBL
ST AUGUSTINE FL  1800   82 84   70/  8/  9 1016.9F


$$




USA.gov is the U.S. government's official web portal to all federal, state and local government web resources and services.